Retour au catalogue

COSMOS 2118

ActifMilitairePO
NORAD 21032·PAYLOAD·🇷🇺 Russia

Lancé Dec 22, 1990 depuis Plesetsk Cosmodrome

Loading…

Prochains Passages (prochaines 24 heures)

TLE

FraisSource: Space-Track

Époque: Sep 14, 2026, 13:47 UTC

1 21032U 90114E   26257.57493522  .00000022  00000-0  62978-4 0  9992
2 21032  82.5643 121.2586 0010554 186.1730 173.9235 12.65558679650245

Suivez COSMOS 2118 en temps réel avec AllMySat

Download on the App Store